This demonstration page uses our WeatherBlox Daily Observations layout. Learn more.

Left ArrowRight Arrow

30.21309, -93.2044

Hourly Observations for February 3, 2022

Temp ( °F °C ) Dew Point ( °F °C ) Humidity (%) Winds ( mph kmh ) Pressure ( in mb ) Visibility ( mi km ) Precip ( " mm )
2:55 am 02:55 Cloudy 68 20.1 66 19.1 94 94 S 17 28 29.76 1008 7 11 0.00 0.00
3:15 am 03:15 Cloudy with Mist and Fog 68 20 66 19.1 95 95 S 13 20 29.75 1007 7 11 0.00 0.00
3:35 am 03:35 Cloudy 68 19.9 66 19.1 95 95 S 18 30 29.75 1007 7 11 0.00 0.00
3:55 am 03:55 Cloudy with Nearby Thunderstorms 68 20 66 19.1 95 95 S 15 24 29.74 1007 10 16 0.00 0.00
4:15 am 04:15 Cloudy 68 20 66 19 94 94 S 21 33 29.74 1007 10 16 0.00 0.00
4:35 am 04:35 Cloudy 68 19.9 66 18.9 94 94 S 18 30 29.73 1007 10 16 0.00 0.00
4:55 am 04:55 Cloudy with Nearby Thunderstorms 68 20 66 19 94 94 S 20 31 29.75 1007 10 16 0.00 0.00
5:15 am 05:15 Cloudy 68 20.1 66 19.1 94 94 SSW 14 22 29.76 1008 10 16 0.00 0.00
5:35 am 05:35 Cloudy 67 19.4 65 18.2 93 93 W 15 24 29.78 1008 10 16 0.00 0.00
6:00 am 06:00 Cloudy with Rain 57 14 55 13 94 94 NW 17 28 29.80 1009 7 11 0.00 0.00
6:45 am 06:45 Cloudy with Rain 52 11 48 9 88 88 NW 17 28 29.85 1011 7 11 0.00 0.00
7:50 am 07:50 Cloudy with Mist and Fog 48 9 46 8 94 94 NNW 9 15 29.89 1012 4 6 0.00 0.00
8:45 am 08:45 Cloudy with Rain 48 9 46 8 94 94 NNW 16 26 29.91 1013 7 11 0.00 0.00
9:45 am 09:45 Cloudy 46 8 45 7 93 93 N 12 19 39.94 1353 10 16 0.00 0.00
10:45 am 10:45 Cloudy 45 7 41 5 87 87 NNW 17 28 29.98 1015 10 16 0.00 0.00
11:50 am 11:50 Cloudy 45 7 39 4 81 81 NNW 21 33 30.00 1016 10 16 0.00 0.00
12:50 pm 12:50 Cloudy 43 6 37 3 81 81 N 18 30 29.99 1016 10 16 0.00 0.00
1:50 pm 13:50 Cloudy 45 7 37 3 76 76 N 20 31 29.96 1015 10 16 0.00 0.00
2:55 pm 14:55 Cloudy 45 7 37 3 76 76 N 13 20 29.98 1015 10 16 0.00 0.00
3:54 pm 15:54 Cloudy 43 6 37 3 81 81 N 13 20 30.00 1016 10 16 0.00 0.00
4:55 pm 16:55 Cloudy 43 6 37 3 81 81 NNW 12 19 30.05 1018 10 16 0.00 0.00
5:45 pm 17:45 Cloudy 43 6 36 2 76 76 NW 16 26 30.06 1018 10 16 0.00 0.00
6:54 pm 18:54 Cloudy 41 5 36 2 81 81 N 14 22 30.11 1020 10 16 0.00 0.00
7:45 pm 19:45 Cloudy 41 5 36 2 81 81 N 14 22 30.15 1021 10 16 0.00 0.00
8:50 pm 20:50 Cloudy 39 4 34 1 81 81 N 13 20 30.18 1022 10 16 0.00 0.00
9:45 pm 21:45 Cloudy 39 4 34 1 81 81 N 12 19 30.21 1023 10 16 0.00 0.00
10:15 pm 22:15 Cloudy with Nearby Thunderstorms 40 4.4 34 1 79 79 N 16 26 30.22 1023 10 16 0.00 0.00
10:35 pm 22:35 Cloudy 40 4.4 34 1.1 79 79 N 15 24 30.22 1023 10 16 0.00 0.00
10:55 pm 22:55 Cloudy 40 4.4 34 1 79 79 N 14 22 30.23 1024 10 16 0.00 0.00
11:15 pm 23:15 Cloudy with Nearby Thunderstorms 40 4.2 33 0.7 78 78 N 16 26 30.22 1023 10 16 0.00 0.00
11:35 pm 23:35 Cloudy 39 4.1 33 0.5 78 78 N 13 20 30.23 1024 10 16 0.00 0.00
11:55 pm 23:55 Cloudy 39 3.9 33 0.6 79 79 N 17 28 30.23 1024 10 16 0.00 0.00

Powered by AerisWeather